Voltar ao catálogo

PSLV DEB

AtivoSSO
NORAD 27089·DEBRIS·🇮🇳 India

Lançado Oct 22, 2001 de Satish Dhawan Space Centre

Loading…

Próximas Passagens (próximas 24 horas)

TLE

AtualizadoSource: Space-Track

Época: Sep 14, 2026, 13:00 UTC

1 27089U 01049AH  26257.54223463  .00000363  00000-0  34277-4 0  9990
2 27089  98.1170 283.7266 0049139 137.4529  21.7496 14.99553838342772

Acompanhe PSLV DEB em tempo real com AllMySat

Download on the App Store